Weather in Sokoto

Nigeria     13°01′51″N   5°14′24″E
temp.,
°C
wind,
m/s
gust,
m/s
humid.,
%
clouds,
%
prec.,
mm/h
press.,
hPa
HPBL,
m
8 march, mon
mon801:00+26e5875 0.0 1010111
04:00+24ene4680 0.0 100899
07:00+23e5871 0.0 1010126
10:00+33e6953 0.0 1010602
13:00+39ese5651 0.0 10071654
16:00+40e3360 0.0 10043025
19:00+31ne231029 0.0 100524
22:00+30ne4510100 0.0 100738
9 march, tue
tue901:00+28ene4510100 0.0 100753
04:00+25ese3412100 0.0 100630
07:00+24e5612100 0.0 100891
10:00+32sse6910100 0.0 1009650
13:00+39sse569100 0.0 10061648
16:00+40se32899 0.0 10033247
19:00+32e231398 0.0 100426
22:00+32ene4511100 0.0 100645
10 march, wed
wed1001:00+30ene45979 0.0 100537
04:00+26s241187 0.0 100526
07:00+26se581187 0.0 1007109
10:00+33ssw562718 0.0 1009617
13:00+39ssw331451 0.0 10062095
16:00+41sw221126 0.0 10034365
19:00+32sw121864 0.0 100325
22:00+29nne222274 0.0 100524
11 march, thu
thu1101:00+27wnw112654 0.0 100524
04:00+26ese1126100 0.0 100424
07:00+28ssw462857 0.0 100686
10:00+34ssw792913 0.0 1008654
13:00+39sw662035 0.0 10052101
16:00+41sw55165 0.0 10023852
19:00+36wsw471644 0.0 1003155
22:00+29nnw341532 0.0 100543
12 march, fri
fri1201:00+28nw451432 0.0 100692
04:00+26wnw4515100 0.0 100551
07:00+24wsw2319100 0.0 100626
10:00+32w441183 0.0 1009804
13:00+37nw33873 0.0 10071463
16:00+38nw55879 0.0 10031991
19:00+32nw561140 0.0 100587
22:00+29nnw58130 0.0 1007120